Vorticity
nan nan nan nan nan nan nan nan nan nan nan nan nan nan nan nan nan nan nan nan nan nan nan nan nan nan nan nan nan nan nan nan nan nan nan nan nan nan nan nan nan nan nan
nan 8 7 8 9 8 6 7 9 7 9 10 9 9 9 9 9 8 7 8 9 7 7 7 7 8 8 8 9 8 9 9 9 8 8 12 11 10 11 11 10 9 nan
nan 8 9 8 8 9 9 7 7 8 7 8 8 8 9 10 9 10 9 7 8 8 9 7 8 6 6 8 8 8 9 9 9 9 8 10 11 10 11 11 11 10 nan
nan 9 8 9 8 8 9 9 7 8 7 7 7 9 9 10 9 9 10 9 8 9 10 9 9 7 6 5 8 7 7 8 9 7 8 10 11 9 10 10 7 11 nan
nan 8 8 8 9 9 9 9 9 8 8 8 7 9 9 8 10 10 9 10 9 8 9 9 10 10 9 3 3 6 8 6 5 7 6 7 5 9 7 9 10 10 nan
nan 9 9 9 9 9 9 10 9 9 10 9 9 9 7 9 13 10 5 7 9 8 7 8 11 12 12 12 6 4 2 4 3 6 7 7 5 4 7 7 7 7 nan
nan 9 10 10 10 10 9 9 10 10 9 10 10 10 9 11 14 11 5 3 8 9 8 7 8 10 12 12 12 11 9 10 6 2 4 5 11 7 9 10 8 5 nan
nan 10 10 10 9 10 10 8 9 11 10 9 10 10 9 12 14 12 10 5 6 8 10 9 7 7 10 11 10 12 12 10 12 7 7 4 5 10 13 11 9 6 nan
nan 10 10 10 9 9 10 9 9 9 9 11 10 10 9 11 14 11 8 9 9 10 10 10 10 9 13 11 8 8 7 10 13 13 13 9 7 7 6 8 11 11 nan
nan 11 10 10 10 10 10 9 9 9 9 10 11 12 10 12 13 13 4 6 10 12 12 13 13 11 12 9 7 7 6 9 8 12 13 17 14 13 12 6 7 7 nan
nan 15 14 12 10 9 9 10 11 10 10 10 11 12 13 12 14 15 5 1 7 9 10 12 16 18 10 9 7 3 6 8 11 9 8 12 16 16 14 14 11 8 nan
nan 12 11 11 11 13 12 9 11 10 10 10 10 10 13 16 17 15 12 5 0 6 8 9 14 16 14 10 7 7 9 9 10 10 10 9 11 12 12 13 14 11 nan
nan 12 13 16 14 12 12 9 10 11 10 10 10 10 11 13 17 20 15 11 2 5 8 9 12 14 11 13 15 16 13 12 11 10 10 10 10 10 12 16 15 13 nan
nan 14 16 14 12 12 15 14 12 11 11 10 10 11 11 11 11 11 13 17 15 8 10 13 11 13 14 10 15 17 14 13 12 10 10 10 11 13 14 14 14 13 nan
nan 8 12 16 14 10 9 14 17 14 15 12 9 12 12 13 16 12 9 10 16 16 13 12 12 12 11 12 12 12 12 12 11 11 11 12 12 12 13 13 13 12 nan
nan 10 9 12 14 13 9 5 8 11 16 21 22 15 8 15 20 17 13 13 16 15 9 11 12 12 13 12 11 12 13 13 11 12 12 11 12 12 11 13 13 14 nan
nan 8 10 11 14 12 11 11 5 7 9 11 22 22 18 14 12 13 12 14 16 7 8 11 12 11 11 12 12 11 9 11 14 14 12 11 11 12 11 11 15 15 nan
nan 12 13 13 14 12 12 11 10 11 5 2 7 14 18 20 16 12 7 2 6 9 12 12 11 10 10 10 11 12 11 10 10 12 13 11 9 11 12 15 14 10 nan
nan 11 11 12 14 16 15 13 11 11 10 10 7 7 8 10 14 13 6 6 12 12 12 11 11 11 11 10 10 10 10 9 10 12 11 10 11 11 9 10 9 10 nan
nan 11 11 12 13 14 13 13 11 11 12 10 9 10 9 7 8 9 12 14 12 11 11 11 10 10 10 10 10 11 10 10 12 12 12 12 10 10 10 10 11 11 nan
nan 14 13 10 11 13 13 12 13 13 11 10 10 11 13 12 11 11 11 10 10 10 11 10 10 10 11 12 11 11 11 11 11 12 12 11 10 12 13 12 12 12 nan
nan 13 14 12 10 12 14 14 15 13 12 11 11 11 12 13 11 11 10 11 12 13 13 13 13 12 12 12 12 11 12 12 12 12 12 12 12 13 15 14 13 12 nan
nan 14 12 13 13 9 10 12 12 12 12 13 13 12 10 12 12 11 10 11 13 13 13 14 14 14 14 14 13 12 13 12 11 11 12 14 13 13 12 12 11 11 nan
nan 18 14 12 11 12 12 11 11 12 10 9 10 11 11 11 11 11 11 12 11 11 12 12 11 11 13 12 13 13 11 10 11 12 14 12 11 11 10 11 11 11 nan
nan 18 16 14 14 14 13 13 12 11 11 10 11 11 11 11 10 10 11 12 12 11 12 12 11 11 11 11 10 9 13 15 17 14 14 13 13 11 9 10 10 10 nan
nan nan nan nan nan nan nan nan nan nan nan nan nan nan nan nan nan nan nan nan nan nan nan nan nan nan nan nan nan nan nan nan nan nan nan nan nan nan nan nan nan nan nan
CAPE
431 383 376 386 333 308 208 84 75 8 0 349 587 957 1319 1123 1053 951 998 1146 1167 1298 1082 650 512 392 390 61 0 0 0 0 0 0 0 0 0 0 0 0 0 0 0
455 469 451 496 629 746 481 120 65 207 46 33 547 778 1113 1349 1211 1069 987 1122 1291 1225 1314 1251 1074 840 562 227 8 0 0 0 0 0 0 0 0 0 0 0 0 0 0
322 548 617 516 384 461 1095 1008 238 17 39 304 198 812 957 1235 1288 1190 1209 1080 1119 1393 1407 1326 1481 1209 1052 784 311 39 0 0 0 0 0 0 0 0 0 0 0 0 0
498 506 730 856 794 543 378 728 1103 637 276 259 579 652 931 1145 1341 1408 1367 1247 1182 1263 1444 1517 1556 1404 1440 1258 809 456 112 0 0 0 0 0 0 0 0 0 0 0 0
666 758 752 945 1070 1089 930 553 557 1069 1001 641 616 889 1247 1311 1417 1450 1547 1488 1351 1297 1321 1357 1499 1552 1405 1423 1358 1094 368 167 64 0 0 0 0 0 9 0 0 0 0
862 894 947 967 1186 1404 1389 1294 861 673 1103 1100 625 744 1159 1555 1732 1420 1538 1600 1607 1609 1538 1379 1472 1377 1181 815 779 1166 1010 590 434 71 254 67 18 0 29 0 0 0 0
1159 1161 1207 1268 1268 1461 1720 1754 1592 1245 1009 1072 1274 1060 891 1259 1510 1115 949 1798 1708 1666 1666 1642 1576 1531 1311 1446 440 138 117 159 602 850 401 459 210 78 5 0 15 0 0
1477 1538 1607 1662 1720 1673 1695 1912 1989 1884 1630 1401 1100 1206 1399 1338 1468 557 487 1531 1948 1924 1828 1783 1779 1757 1586 1374 1573 1451 690 660 219 126 835 1017 476 326 0 0 0 0 0
1344 1682 1812 1909 1900 2055 2075 1996 2124 2208 2261 2139 1939 1446 1327 1584 1167 583 81 1284 1773 2002 2021 1945 2009 1978 1947 1338 1340 1674 1723 1640 1058 380 162 311 214 84 19 0 1 0 0
1138 1603 1809 1960 2156 2167 2355 2384 2304 2372 2375 2461 2530 2470 2140 1868 1820 270 0 1423 1657 1865 2059 2156 1795 1934 2176 1553 1089 1698 1890 2007 1925 1719 912 91 16 38 0 0 53 48 6
903 977 1266 2063 2212 2433 2471 2521 2623 2592 2622 2660 2677 2683 2785 2508 2471 740 1 1518 1973 2131 2155 2278 2372 2136 848 1113 596 2153 2206 2268 2295 1916 2112 1909 1582 874 505 241 3 64 116
1324 1035 1067 1232 1840 2240 2442 2633 2651 2741 2820 2816 2758 2774 2785 2807 2588 1130 11 138 2258 2503 2648 2697 2632 2500 1746 767 0 449 909 682 1852 2283 2506 2628 2430 1933 1191 553 327 0 20
1425 1640 1826 1700 1581 1583 2194 2404 2566 2625 2685 2753 2801 2776 2773 2686 2629 2140 156 0 9 1519 2805 3091 3048 2820 1932 18 0 0 0 225 995 1794 2159 2369 2492 2476 2440 1440 336 106 38
2642 2145 1714 1739 2099 2131 2160 2175 2244 2483 2633 2674 2747 2866 2845 2760 2861 2586 202 12 3 11 556 1620 1873 1798 1826 1589 744 107 0 9 453 1154 1677 1908 1968 2042 2150 1536 756 176 57
1823 1925 2230 2578 1744 1725 806 1121 2082 2395 2030 2891 2943 2984 2975 2918 2994 3115 3106 2118 1288 1001 1205 1032 1306 1715 2191 2440 2206 1380 309 73 80 333 656 985 1130 1232 1363 1431 871 353 171
877 1180 1144 1306 2527 1211 1 1 0 1 2 2 108 3009 750 666 1775 1854 1495 1137 920 516 663 1353 1668 1509 1576 1621 1717 1882 1555 650 502 466 439 434 465 589 693 745 796 476 290
668 858 907 819 1524 1082 51 1 1 1 1 2 3 19 548 433 2 2 2 2 2 1 1186 668 675 572 600 630 872 1333 1509 1018 519 290 196 225 72 0 0 0 2 0 0
635 759 724 764 1034 2133 703 169 0 0 63 0 1 0 0 0 0 0 2 1 22 2 8 108 231 229 237 188 0 0 0 0 0 0 1 0 0 0 0 0 0 0 0
588 511 317 285 258 946 2198 77 0 0 0 0 0 0 1 1 1 2 1 0 0 0 0 0 0 0 0 0 0 0 0 1 0 1 0 0 0 0 0 0 0 1 0
283 527 238 237 216 328 920 250 72 0 0 0 0 0 0 0 0 0 0 0 0 0 0 0 0 0 0 0 0 0 0 0 0 0 1 0 0 0 0 0 0 0 0
178 264 171 161 195 159 162 275 92 0 0 0 0 0 0 0 0 0 0 0 0 0 0 0 0 0 0 0 1 0 0 0 0 0 0 0 0 1 0 0 0 0 0
12 252 37 49 0 0 0 0 0 0 0 0 0 0 0 0 0 0 0 0 0 0 0 0 0 0 0 1 1 0 0 0 0 0 0 0 0 1 1 1 0 0 0
0 29 0 0 0 0 0 0 0 0 1 0 1 1 0 1 0 0 1 1 0 0 0 1 0 0 1 1 0 1 1 1 0 0 0 0 0 0 0 0 0 0 0
0 0 0 0 0 0 0 0 0 0 0 0 0 0 0 0 0 0 1 0 0 0 0 0 0 0 0 0 0 0 0 0 0 0 0 0 0 0 0 0 0 0 0
0 0 0 0 0 0 0 0 0 0 0 0 0 0 0 0 0 1 0 0 0 0 0 0 0 0 0 0 0 0 0 0 0 0 0 0 0 0 0 0 0 0 0
0 1 1 1 1 2 2 1 2 1 0 1 1 1 1 1 1 1 1 1 1 1 1 1 0 0 0 0 0 0 0 0 0 0 0 0 0 0 0 0 0 0 0